This demonstration page uses our WeatherBlox Daily Observations layout. Learn more.

Left ArrowRight Arrow

38.80484, -77.04692

Hourly Observations for May 29, 2021

Temp ( °F °C ) Dew Point ( °F °C ) Humidity (%) Winds ( mph kmh ) Pressure ( in mb ) Visibility ( mi km ) Precip ( " mm )
12:52 am 00:52 Cloudy 59 15 55 12.8 87 87 NE 14 22 29.77 1008 10 16 0.00 0.00
1:20 am 01:20 Cloudy 59 15 55 12.8 87 87 NE 14 22 29.78 1008 10 16 N/A
1:52 am 01:52 Cloudy with Light Rain 58 14.4 54 12.2 87 87 NE 14 22 29.77 1008 10 16 0.00 0.00
2:30 am 02:30 Cloudy 57 13.9 54 12.2 90 90 NNE 13 20 29.77 1008 10 16 0.00 0.00
2:52 am 02:52 Cloudy with Light Rain 57 13.9 53 11.7 87 87 NE 13 20 29.77 1008 4 6 0.00 0.00
3:48 am 03:48 Cloudy with Rain 55 13 54 12 94 94 NNE 13 20 29.75 1007 4 6 0.13 3.30
3:52 am 03:52 Cloudy with Light Rain 56 13.3 53 11.7 90 90 NE 15 24 29.75 1007 5 8 0.13 3.30
4:00 am 04:00 Cloudy with Light Rain 56 13.3 53 11.7 90 90 NNE 14 22 29.75 1007 9 14 0.01 0.25
4:09 am 04:09 Cloudy with Light Rain 55 12.8 52 11.1 90 90 NNE 14 22 29.75 1007 10 16 0.01 0.25
4:52 am 04:52 Cloudy with Light Rain 55 12.8 52 11.1 90 90 NNE 10 17 29.77 1008 7 11 0.07 1.78
5:15 am 05:15 Cloudy with Light Rain 55 12.8 52 11.1 90 90 N 13 20 29.79 1009 10 16 0.01 0.25
5:52 am 05:52 Cloudy with Drizzle 55 12.8 52 11.1 90 90 N 13 20 29.79 1009 4 6 0.01 0.25
6:30 am 06:30 Cloudy with Drizzle 55 12.8 51 10.6 87 87 NE 16 26 29.81 1009 4 6 0.00 0.00
6:52 am 06:52 Cloudy with Drizzle 55 12.8 51 10.6 87 87 NNE 12 19 29.83 1010 4 6 0.00 0.00
6:54 am 06:54 Cloudy with Drizzle 55 12.8 51 10.6 87 87 N 14 22 29.83 1010 3 5 0.00 0.00
6:59 am 06:59 Cloudy with Drizzle 54 12.2 51 10.6 90 90 NNE 13 20 29.84 1011 3 4 0.00 0.00
7:01 am 07:01 Cloudy with Light Rain 54 12.2 51 10.6 90 90 NNE 13 20 29.84 1011 3 4 0.00 0.00
7:20 am 07:20 Cloudy with Light Rain 54 12.2 51 10.6 90 90 N 14 22 29.85 1011 3 5 0.01 0.25
7:29 am 07:29 Cloudy with Light Rain 54 12.2 51 10.6 90 90 NNE 16 26 29.85 1011 3 4 0.01 0.25
7:37 am 07:37 Cloudy with Light Rain 54 12.2 51 10.6 90 90 NNE 15 24 29.86 1011 3 5 0.02 0.51
7:43 am 07:43 Cloudy with Light Rain 54 12.2 51 10.6 90 90 NNE 16 26 29.86 1011 4 6 0.03 0.76
7:52 am 07:52 Cloudy with Light Rain 54 12.2 51 10.6 90 90 NNE 12 19 29.86 1011 4 6 0.03 0.76
7:55 am 07:55 Cloudy with Light Rain 54 12.2 51 10.6 90 90 NNE 16 26 29.86 1011 4 6 0.00 0.00
7:59 am 07:59 Cloudy with Light Rain 54 12.2 51 10.6 90 90 NNE 16 26 29.86 1011 5 8 0.00 0.00
8:07 am 08:07 Cloudy with Light Rain 54 12.2 51 10.6 90 90 NNE 16 26 29.87 1012 5 8 0.01 0.25
8:09 am 08:09 Cloudy with Light Rain 54 12.2 51 10.6 90 90 NNE 15 24 29.86 1011 4 6 0.01 0.25
8:19 am 08:19 Cloudy with Light Rain 54 12.2 51 10.6 90 90 NNE 14 22 29.87 1012 5 8 0.01 0.25
8:52 am 08:52 Cloudy with Light Rain 54 12.2 51 10.6 90 90 NNE 16 26 29.88 1012 6 10 0.02 0.51
9:05 am 09:05 Cloudy with Light Rain 54 12.2 50 10 87 87 NE 15 24 29.89 1012 10 16 0.00 0.00
9:12 am 09:12 Cloudy with Light Rain 54 12.2 50 10 87 87 NNE 15 24 29.89 1012 10 16 0.00 0.00
9:26 am 09:26 Cloudy with Light Rain 54 12.2 50 10 87 87 NNE 14 22 29.90 1013 5 8 0.01 0.25
9:38 am 09:38 Cloudy with Light Rain 54 12.2 51 10.6 90 90 NNE 12 19 29.90 1013 3 4 0.03 0.76
9:43 am 09:43 Cloudy with Light Rain 54 12.2 51 10.6 90 90 NNE 14 22 29.91 1013 3 5 0.04 1.02
9:52 am 09:52 Cloudy with Light Rain 54 12.2 51 10.6 90 90 NNE 12 19 29.91 1013 4 6 0.04 1.02
10:23 am 10:23 Cloudy with Light Rain 54 12.2 50 10 87 87 NNE 18 30 29.92 1013 3 4 0.03 0.76
10:26 am 10:26 Cloudy with Rain 54 12.2 50 10 87 87 NNE 17 28 29.93 1014 3 4 0.03 0.76
10:34 am 10:34 Cloudy with Light Rain 54 12.2 50 10 87 87 NNE 16 26 29.93 1014 3 5 0.04 1.02
10:36 am 10:36 Cloudy with Light Rain 54 12.2 50 10 87 87 NNE 16 26 29.93 1014 4 6 0.04 1.02
10:38 am 10:38 Cloudy with Light Rain 54 12.2 50 10 87 87 NNE 15 24 29.93 1014 4 6 0.04 1.02
10:45 am 10:45 Cloudy with Heavy Rain 54 12.2 50 10 87 87 NNE 16 26 29.93 1014 3 4 0.07 1.78
10:52 am 10:52 Cloudy with Light Rain 54 12.2 50 10 87 87 NNE 15 24 29.93 1014 3 4 0.08 2.03
10:54 am 10:54 Cloudy with Light Rain 54 12.2 50 10 87 87 NNE 13 20 29.94 1014 3 5 0.01 0.25
10:58 am 10:58 Cloudy with Light Rain 54 12.2 50 10 87 87 NNE 18 30 29.94 1014 3 5 0.01 0.25
11:52 am 11:52 Cloudy with Light Rain 53 11.7 50 10 89 89 NNE 17 28 29.95 1014 3 5 0.02 0.51
12:04 pm 12:04 Cloudy with Light Rain 53 11.7 49 9.4 86 86 NNE 16 26 29.96 1015 3 4 0.01 0.25
12:27 pm 12:27 Cloudy with Light Rain 54 12.2 50 10 87 87 NNE 14 22 29.96 1015 3 4 0.04 1.02
12:52 pm 12:52 Cloudy with Light Rain 54 12.2 51 10.6 90 90 NNE 15 24 29.96 1015 3 5 0.07 1.78
12:58 pm 12:58 Cloudy with Light Rain 54 12.2 51 10.6 90 90 NNE 17 28 29.96 1015 4 6 0.00 0.00
1:08 pm 13:08 Cloudy with Light Rain 54 12.2 50 10 87 87 NNE 15 24 29.96 1015 7 11 0.00 0.00
1:13 pm 13:13 Cloudy 54 12.2 50 10 87 87 NNE 17 28 29.96 1015 8 13 0.00 0.00
1:17 pm 13:17 Cloudy 54 12.2 50 10 87 87 NE 17 28 29.96 1015 8 13 0.00 0.00
1:48 pm 13:48 Cloudy with Light Rain 54 12 50 10 88 88 NNE 15 24 29.98 1015 4 6 0.00 0.00
1:52 pm 13:52 Cloudy with Light Rain 53 11.7 49 9.4 86 86 NNE 17 28 29.97 1015 4 6 0.00 0.00
1:55 pm 13:55 Cloudy with Light Rain 53 11.7 49 9.4 86 86 NNE 16 26 29.98 1015 4 6 0.01 0.25
2:19 pm 14:19 Cloudy with Light Rain 53 11.7 49 9.4 86 86 NNE 20 31 29.98 1015 3 5 0.01 0.25
2:35 pm 14:35 Cloudy with Light Rain 53 11.7 49 9.4 86 86 NNE 16 26 29.98 1015 4 6 0.02 0.51
2:38 pm 14:38 Cloudy with Light Rain 53 11.7 50 10 89 89 NNE 16 26 29.98 1015 4 6 0.02 0.51
2:46 pm 14:46 Cloudy with Light Rain 54 12 50 10 88 88 NNE 16 26 29.98 1015 5 8 0.02 0.51
2:52 pm 14:52 Cloudy with Light Rain 54 12.2 50 10 87 87 NNE 12 19 29.99 1016 5 8 0.02 0.51
3:08 pm 15:08 Cloudy with Light Rain 54 12.2 50 10 87 87 N 16 26 29.99 1016 5 8 0.01 0.25
3:39 pm 15:39 Cloudy 53 11.7 49 9.4 86 86 NNE 16 26 30.01 1016 9 14 0.01 0.25
3:52 pm 15:52 Cloudy with Light Rain 53 11.7 48 8.9 83 83 NNE 16 26 30.01 1016 8 13 0.01 0.25
4:38 pm 16:38 Cloudy 53 11.7 48 8.9 83 83 NNE 15 24 30.01 1016 10 16 0.00 0.00
4:52 pm 16:52 Cloudy 53 11.7 48 8.9 83 83 NE 13 20 30.03 1017 10 16 0.00 0.00
5:04 pm 17:04 Cloudy 53 11.7 48 8.9 83 83 NE 14 22 30.03 1017 10 16 N/A
5:26 pm 17:26 Cloudy 53 11.7 48 8.9 83 83 NNE 14 22 30.06 1018 10 16 N/A
5:52 pm 17:52 Cloudy 53 11.7 47 8.3 80 80 NE 13 20 30.06 1018 10 16 N/A
6:15 pm 18:15 Cloudy with Light Rain 53 11.7 48 8.9 83 83 NNE 16 26 30.05 1018 5 8 0.02 0.51
6:52 pm 18:52 Cloudy 53 11.7 48 8.9 83 83 NE 13 20 30.06 1018 10 16 0.02 0.51
7:52 pm 19:52 Cloudy with Light Rain 53 11.7 48 8.9 83 83 NNE 14 22 30.08 1019 10 16 0.00 0.00
8:29 pm 20:29 Cloudy 53 11.7 49 9.4 86 86 NNE 14 22 30.08 1019 10 16 0.00 0.00
8:52 pm 20:52 Cloudy 52 11.1 48 8.9 86 86 NE 16 26 30.07 1018 10 16 0.00 0.00
9:19 pm 21:19 Cloudy 53 11.7 48 8.9 83 83 NNE 16 26 30.09 1019 10 16 N/A
9:30 pm 21:30 Cloudy 53 11.7 48 8.9 83 83 NNE 15 24 30.09 1019 10 16 N/A
9:52 pm 21:52 Cloudy with Light Rain 53 11.7 47 8.3 80 80 NNE 17 28 30.09 1019 10 16 0.00 0.00
10:52 pm 22:52 Cloudy with Light Rain 52 11.1 47 8.3 83 83 NNE 15 24 30.11 1020 8 13 0.00 0.00
11:01 pm 23:01 Cloudy with Light Rain 52 11.1 48 8.9 86 86 N 18 30 30.11 1020 5 8 0.00 0.00
11:26 pm 23:26 Cloudy with Light Rain 52 11.1 48 8.9 86 86 NNE 15 24 30.12 1020 5 8 0.01 0.25
11:50 pm 23:50 Cloudy with Drizzle 52 11 48 9 88 88 NNE 15 24 30.12 1020 5 8 0.01 0.25
11:52 pm 23:52 Cloudy with Drizzle 51 10.6 48 8.9 89 89 NNE 14 22 30.12 1020 6 10 0.01 0.25

Powered by AerisWeather